QPF
0.00 0.00 0.00 0.00 0.00 0.00 0.00 0.00 0.00 0.00 0.00 0.00 0.00 0.00 0.00 0.01 0.01 0.01 0.00 0.00 0.00 0.00 0.00 0.01 0.03 0.01 0.00 0.01 0.01 0.01 0.00 0.00 0.01 0.00 0.00 0.00 0.00 0.00 0.00 0.00 0.00 0.00 0.04 0.07 0.04 0.03 0.01 0.00 0.00
0.00 0.00 0.00 0.00 0.00 0.00 0.00 0.00 0.00 0.00 0.00 0.00 0.00 0.00 0.00 0.01 0.00 0.00 0.00 0.00 0.00 0.00 0.00 0.00 0.03 0.04 0.00 0.00 0.00 0.00 0.00 0.00 0.00 0.00 0.01 0.01 0.01 0.01 0.01 0.00 0.00 0.01 0.07 0.08 0.06 0.01 0.00 0.00 0.00
0.00 0.00 0.00 0.00 0.00 0.00 0.00 0.00 0.00 0.00 0.00 0.00 0.00 0.00 0.00 0.00 0.00 0.00 0.00 0.00 0.00 0.00 0.00 0.00 0.00 0.01 0.00 0.00 0.00 0.00 0.00 0.00 0.00 0.00 0.00 0.01 0.03 0.02 0.02 0.03 0.01 0.00 0.02 0.01 0.01 0.01 0.01 0.00 0.00
0.00 0.00 0.00 0.00 0.00 0.00 0.00 0.00 0.00 0.00 0.00 0.00 0.00 0.00 0.00 0.00 0.00 0.00 0.00 0.00 0.00 0.00 0.00 0.00 0.00 0.01 0.00 0.00 0.00 0.00 0.00 0.00 0.01 0.04 0.01 0.00 0.00 0.00 0.00 0.01 0.01 0.00 0.00 0.00 0.01 0.01 0.00 0.00 0.00
0.00 0.00 0.00 0.00 0.00 0.00 0.00 0.00 0.00 0.00 0.00 0.00 0.00 0.00 0.00 0.00 0.00 0.00 0.00 0.00 0.00 0.00 0.00 0.03 0.06 0.11 0.01 0.00 0.00 0.00 0.00 0.02 0.06 0.02 0.01 0.04 0.03 0.04 0.03 0.03 0.00 0.00 0.00 0.00 0.00 0.01 0.00 0.00 0.00
0.00 0.00 0.00 0.00 0.00 0.00 0.00 0.00 0.00 0.00 0.00 0.00 0.00 0.00 0.00 0.00 0.00 0.00 0.00 0.00 0.00 0.00 0.01 0.02 0.03 0.13 0.08 0.00 0.00 0.00 0.02 0.06 0.08 0.04 0.02 0.10 0.08 0.02 0.03 0.01 0.00 0.00 0.00 0.01 0.02 0.03 0.00 0.00 0.00
0.00 0.00 0.00 0.00 0.00 0.00 0.00 0.00 0.00 0.00 0.00 0.00 0.00 0.00 0.00 0.00 0.00 0.00 0.00 0.00 0.00 0.02 0.04 0.01 0.02 0.08 0.05 0.00 0.00 0.11 0.13 0.09 0.05 0.02 0.03 0.10 0.08 0.02 0.01 0.00 0.00 0.02 0.01 0.01 0.00 0.01 0.00 0.00 0.00
0.00 0.00 0.00 0.00 0.00 0.00 0.00 0.00 0.00 0.00 0.00 0.00 0.00 0.00 0.00 0.00 0.00 0.00 0.00 0.00 0.02 0.02 0.01 0.01 0.00 0.01 0.00 0.01 0.01 0.10 0.13 0.16 0.06 0.03 0.06 0.07 0.01 0.00 0.00 0.00 0.00 0.00 0.00 0.01 0.01 0.00 0.00 0.00 0.00
0.00 0.00 0.00 0.00 0.00 0.00 0.00 0.01 0.00 0.02 0.01 0.00 0.00 0.00 0.00 0.00 0.00 0.00 0.00 0.00 0.01 0.00 0.01 0.00 0.00 0.00 0.00 0.00 0.07 0.15 0.03 0.15 0.06 0.10 0.07 0.03 0.00 0.00 0.00 0.00 0.00 0.00 0.00 0.00 0.01 0.01 0.00 0.00 0.00
0.00 0.00 0.00 0.00 0.00 0.00 0.00 0.00 0.00 0.02 0.00 0.00 0.00 0.00 0.00 0.00 0.00 0.00 0.00 0.00 0.00 0.00 0.02 0.00 0.00 0.00 0.00 0.00 0.01 0.05 0.03 0.05 0.03 0.05 0.01 0.00 0.00 0.00 0.00 0.00 0.00 0.01 0.06 0.11 0.11 0.03 0.01 0.00 0.00
0.00 0.00 0.00 0.00 0.00 0.00 0.00 0.00 0.00 0.00 0.00 0.00 0.00 0.00 0.00 0.00 0.00 0.00 0.01 0.00 0.01 0.00 0.00 0.00 0.00 0.00 0.00 0.00 0.01 0.04 0.00 0.00 0.00 0.00 0.00 0.00 0.00 0.00 0.00 0.00 0.02 0.10 0.09 0.05 0.01 0.00 0.00 0.00 0.00
0.00 0.01 0.00 0.00 0.00 0.00 0.00 0.00 0.00 0.00 0.00 0.00 0.00 0.00 0.00 0.00 0.00 0.00 0.00 0.00 0.00 0.00 0.00 0.00 0.00 0.00 0.00 0.00 0.00 0.00 0.00 0.00 0.00 0.00 0.00 0.00 0.00 0.00 0.00 0.00 0.00 0.00 0.00 0.00 0.00 0.00 0.00 0.00 0.00
0.00 0.00 0.00 0.00 0.00 0.00 0.00 0.00 0.00 0.00 0.00 0.00 0.00 0.00 0.00 0.00 0.00 0.00 0.00 0.01 0.03 0.00 0.00 0.00 0.00 0.00 0.00 0.00 0.00 0.00 0.00 0.00 0.00 0.00 0.00 0.00 0.00 0.00 0.00 0.00 0.00 0.00 0.00 0.00 0.00 0.00 0.00 0.00 0.00
0.00 0.00 0.00 0.00 0.00 0.00 0.00 0.00 0.00 0.00 0.00 0.00 0.00 0.00 0.00 0.00 0.00 0.00 0.00 0.00 0.01 0.04 0.00 0.00 0.00 0.00 0.00 0.00 0.00 0.00 0.00 0.00 0.00 0.00 0.00 0.00 0.00 0.00 0.00 0.00 0.00 0.01 0.02 0.00 0.00 0.00 0.00 0.00 0.00
0.00 0.00 0.00 0.00 0.00 0.00 0.00 0.00 0.00 0.00 0.00 0.00 0.00 0.00 0.00 0.00 0.00 0.00 0.00 0.02 0.02 0.04 0.00 0.00 0.00 0.00 0.00 0.00 0.00 0.00 0.00 0.00 0.00 0.00 0.00 0.00 0.00 0.00 0.00 0.00 0.00 0.00 0.00 0.00 0.00 0.00 0.00 0.00 0.00
0.00 0.00 0.00 0.00 0.00 0.00 0.00 0.00 0.00 0.00 0.00 0.00 0.00 0.00 0.00 0.00 0.00 0.00 0.00 0.02 0.01 0.03 0.00 0.00 0.00 0.00 0.00 0.00 0.00 0.00 0.00 0.00 0.00 0.00 0.00 0.00 0.00 0.00 0.00 0.00 0.00 0.00 0.00 0.00 0.00 0.00 0.00 0.00 0.00
0.00 0.00 0.00 0.00 0.00 0.00 0.00 0.00 0.00 0.00 0.00 0.00 0.00 0.00 0.00 0.00 0.00 0.00 0.00 0.00 0.00 0.00 0.00 0.00 0.00 0.00 0.00 0.00 0.00 0.00 0.00 0.00 0.00 0.00 0.00 0.00 0.00 0.00 0.00 0.00 0.00 0.00 0.00 0.00 0.00 0.00 0.00 0.01 0.00
0.00 0.00 0.00 0.00 0.00 0.00 0.00 0.00 0.00 0.00 0.00 0.00 0.00 0.00 0.00 0.00 0.00 0.00 0.00 0.00 0.00 0.00 0.00 0.00 0.00 0.00 0.00 0.00 0.00 0.00 0.00 0.00 0.00 0.00 0.00 0.00 0.00 0.00 0.00 0.00 0.00 0.00 0.00 0.00 0.00 0.00 0.00 0.00 0.00
0.00 0.00 0.00 0.00 0.00 0.00 0.00 0.00 0.00 0.00 0.00 0.00 0.00 0.00 0.00 0.00 0.00 0.00 0.00 0.00 0.00 0.00 0.00 0.00 0.00 0.00 0.00 0.00 0.00 0.00 0.00 0.00 0.00 0.00 0.00 0.00 0.00 0.00 0.00 0.00 0.00 0.00 0.00 0.00 0.00 0.00 0.00 0.00 0.00
0.00 0.00 0.00 0.00 0.00 0.00 0.00 0.00 0.00 0.00 0.00 0.00 0.00 0.00 0.00 0.00 0.00 0.00 0.00 0.00 0.00 0.00 0.00 0.00 0.00 0.00 0.00 0.00 0.00 0.00 0.00 0.00 0.00 0.00 0.00 0.00 0.00 0.00 0.00 0.00 0.00 0.00 0.00 0.00 0.00 0.00 0.00 0.00 0.00
0.00 0.00 0.00 0.00 0.00 0.00 0.00 0.00 0.00 0.00 0.00 0.00 0.00 0.00 0.00 0.00 0.00 0.00 0.00 0.00 0.00 0.00 0.00 0.00 0.00 0.00 0.00 0.00 0.00 0.00 0.00 0.00 0.00 0.01 0.02 0.00 0.00 0.00 0.00 0.00 0.00 0.00 0.00 0.00 0.00 0.00 0.00 0.00 0.00
0.00 0.00 0.00 0.00 0.00 0.00 0.00 0.00 0.00 0.00 0.00 0.00 0.00 0.00 0.00 0.00 0.00 0.00 0.00 0.00 0.00 0.00 0.00 0.00 0.00 0.00 0.00 0.00 0.00 0.00 0.00 0.03 0.01 0.00 0.01 0.01 0.00 0.00 0.00 0.00 0.00 0.04 0.00 0.00 0.00 0.00 0.00 0.01 0.00
0.00 0.00 0.00 0.00 0.00 0.00 0.00 0.00 0.00 0.00 0.00 0.00 0.00 0.00 0.00 0.00 0.00 0.00 0.00 0.00 0.00 0.00 0.00 0.00 0.00 0.00 0.00 0.00 0.00 0.00 0.00 0.00 0.00 0.00 0.00 0.00 0.00 0.00 0.00 0.00 0.00 0.03 0.01 0.00 0.00 0.00 0.00 0.00 0.00
0.00 0.00 0.00 0.00 0.00 0.00 0.00 0.00 0.00 0.00 0.00 0.00 0.00 0.00 0.00 0.00 0.00 0.00 0.00 0.00 0.00 0.00 0.00 0.00 0.00 0.00 0.00 0.00 0.00 0.00 0.00 0.00 0.00 0.00 0.00 0.00 0.00 0.00 0.00 0.00 0.04 0.03 0.03 0.00 0.00 0.00 0.00 0.00 0.00
0.00 0.00 0.00 0.00 0.00 0.00 0.00 0.00 0.00 0.00 0.00 0.00 0.00 0.00 0.00 0.00 0.00 0.00 0.00 0.00 0.00 0.00 0.00 0.00 0.00 0.00 0.00 0.00 0.00 0.00 0.00 0.00 0.00 0.00 0.00 0.00 0.00 0.00 0.00 0.00 0.08 0.07 0.04 0.00 0.00 0.00 0.01 0.05 0.02
0.00 0.00 0.00 0.00 0.00 0.00 0.00 0.00 0.00 0.00 0.00 0.00 0.00 0.00 0.00 0.00 0.00 0.00 0.00 0.00 0.00 0.00 0.00 0.00 0.00 0.00 0.00 0.00 0.00 0.00 0.00 0.00 0.00 0.00 0.00 0.00 0.00 0.00 0.00 0.00 0.02 0.05 0.01 0.00 0.00 0.00 0.00 0.02 0.01
0.00 0.00 0.00 0.00 0.00 0.00 0.00 0.00 0.00 0.00 0.00 0.00 0.00 0.00 0.00 0.00 0.00 0.00 0.00 0.00 0.00 0.00 0.00 0.00 0.00 0.00 0.00 0.00 0.00 0.00 0.00 0.00 0.00 0.00 0.00 0.00 0.00 0.00 0.00 0.00 0.00 0.02 0.04 0.01 0.00 0.00 0.00 0.04 0.01
0.00 0.00 0.00 0.00 0.00 0.00 0.00 0.00 0.00 0.00 0.00 0.00 0.00 0.00 0.00 0.00 0.00 0.00 0.00 0.00 0.00 0.00 0.01 0.02 0.00 0.00 0.00 0.00 0.00 0.00 0.00 0.00 0.00 0.00 0.00 0.00 0.00 0.00 0.00 0.00 0.01 0.00 0.00 0.02 0.02 0.00 0.02 0.08 0.07
0.00 0.00 0.00 0.00 0.00 0.00 0.00 0.00 0.00 0.00 0.00 0.00 0.00 0.00 0.00 0.00 0.00 0.00 0.00 0.00 0.00 0.00 0.00 0.01 0.03 0.01 0.00 0.00 0.00 0.00 0.00 0.00 0.00 0.00 0.00 0.00 0.00 0.00 0.00 0.00 0.01 0.01 0.00 0.08 0.08 0.07 0.05 0.06 0.07
0.00 0.00 0.00 0.00 0.00 0.00 0.00 0.00 0.00 0.00 0.00 0.00 0.00 0.00 0.00 0.00 0.00 0.00 0.00 0.00 0.00 0.00 0.00 0.00 0.00 0.00 0.00 0.00 0.00 0.00 0.00 0.00 0.00 0.00 0.00 0.00 0.00 0.00 0.00 0.00 0.01 0.04 0.00 0.00 0.01 0.10 0.06 0.03 0.08
MSLP
1011.29 1011.42 1011.60 1011.62 1011.95 1011.12 1011.20 1011.38 1011.08 1010.61 1010.56 1011.04 1011.03 1011.61 1012.10 1012.50 1012.69 1013.65 1013.90 1014.26 1014.55 1014.83 1015.07 1015.39 1015.66 1015.66 1015.84 1016.09 1016.44 1016.74 1016.85 1016.91 1016.94 1017.09 1017.24 1017.40 1017.55 1017.61 1017.65 1017.60 1017.73 1017.81 1017.92 1017.98 1018.08 1018.12 1018.12 1018.15 1018.24
1011.17 1011.48 1011.52 1011.33 1011.35 1010.91 1011.50 1011.48 1011.23 1010.91 1011.07 1011.22 1011.30 1011.79 1012.15 1012.66 1013.33 1013.88 1013.99 1014.31 1014.30 1014.55 1014.99 1015.28 1015.81 1015.62 1015.97 1016.29 1016.63 1016.89 1017.06 1017.16 1017.24 1017.28 1017.38 1017.51 1017.65 1017.69 1017.72 1017.79 1017.95 1017.98 1018.19 1018.35 1018.39 1018.36 1018.40 1018.39 1018.43
1011.24 1011.27 1011.33 1011.36 1011.41 1011.04 1011.29 1011.51 1011.54 1011.23 1011.03 1011.03 1011.33 1011.86 1012.35 1013.05 1013.79 1013.83 1013.94 1014.34 1014.55 1014.82 1015.10 1015.56 1015.86 1015.94 1016.26 1016.49 1016.77 1017.04 1017.17 1017.34 1017.44 1017.46 1017.56 1017.64 1017.77 1017.88 1017.94 1018.01 1018.12 1018.24 1018.42 1018.48 1018.51 1018.55 1018.58 1018.57 1018.64
1011.06 1011.42 1011.73 1011.48 1011.34 1011.47 1011.29 1011.65 1011.79 1011.37 1011.17 1011.15 1011.55 1012.09 1012.90 1013.47 1013.74 1013.96 1014.33 1014.39 1014.88 1015.28 1015.44 1015.65 1015.96 1016.20 1016.46 1016.64 1016.88 1017.09 1017.28 1017.44 1017.68 1017.68 1017.69 1017.74 1017.78 1017.98 1018.09 1018.26 1018.29 1018.42 1018.49 1018.58 1018.71 1018.80 1018.76 1018.78 1018.79
1011.07 1011.03 1011.04 1011.34 1011.43 1011.56 1011.43 1011.40 1011.42 1011.15 1011.21 1011.22 1011.51 1012.39 1013.18 1013.91 1013.96 1014.34 1014.48 1014.68 1014.89 1015.20 1015.56 1015.79 1016.10 1016.34 1016.57 1016.80 1016.99 1017.24 1017.36 1017.49 1017.64 1017.70 1017.80 1017.83 1017.94 1018.09 1018.23 1018.28 1018.38 1018.52 1018.60 1018.73 1018.83 1018.81 1018.85 1018.80 1018.92
1010.71 1011.07 1011.06 1011.11 1011.40 1011.47 1011.49 1011.22 1011.17 1010.99 1011.09 1011.43 1011.67 1012.35 1013.44 1014.37 1014.25 1014.60 1014.81 1015.04 1015.11 1015.40 1015.47 1015.98 1016.28 1016.49 1016.70 1016.88 1017.08 1017.22 1017.43 1017.64 1017.69 1017.81 1017.91 1018.02 1018.11 1018.29 1018.43 1018.47 1018.44 1018.59 1018.69 1018.79 1018.84 1018.78 1018.87 1018.86 1018.93
1010.60 1010.96 1011.25 1011.39 1011.24 1011.34 1011.27 1011.13 1010.85 1010.91 1010.95 1011.22 1011.60 1012.32 1013.63 1014.26 1014.57 1014.90 1015.16 1015.36 1015.25 1015.66 1015.67 1015.94 1016.20 1016.60 1016.79 1016.93 1017.10 1017.35 1017.53 1017.75 1017.80 1017.88 1018.07 1018.08 1018.36 1018.38 1018.58 1018.60 1018.55 1018.65 1018.69 1018.79 1018.79 1018.79 1018.97 1018.97 1019.07
1010.74 1011.10 1011.26 1011.43 1011.35 1011.13 1011.11 1010.94 1010.92 1010.93 1011.02 1011.42 1011.58 1011.99 1012.90 1013.91 1014.68 1015.00 1015.41 1015.57 1015.80 1015.94 1015.93 1016.07 1016.32 1016.50 1016.71 1016.85 1017.21 1017.43 1017.74 1017.94 1017.96 1018.12 1018.22 1018.36 1018.47 1018.53 1018.64 1018.68 1018.63 1018.73 1018.73 1018.88 1018.95 1018.86 1018.93 1018.88 1018.85
1010.92 1011.12 1011.11 1011.20 1011.28 1011.02 1011.12 1010.81 1010.92 1011.01 1011.06 1011.47 1011.89 1012.18 1012.57 1013.85 1014.59 1014.96 1015.53 1015.76 1016.14 1016.20 1016.17 1016.05 1016.16 1016.50 1016.71 1017.00 1017.34 1017.66 1017.80 1017.95 1018.01 1018.39 1018.49 1018.61 1018.38 1018.45 1018.45 1018.64 1018.75 1018.79 1018.81 1018.70 1018.72 1018.83 1018.81 1018.90 1019.03
1010.66 1011.00 1011.01 1011.23 1011.19 1011.11 1011.05 1010.91 1010.92 1011.13 1011.18 1011.60 1012.24 1012.85 1013.28 1013.86 1014.28 1014.69 1015.22 1015.43 1015.94 1016.10 1016.23 1016.16 1016.22 1016.49 1016.80 1017.27 1017.50 1017.56 1017.79 1018.13 1018.56 1018.62 1018.61 1018.57 1018.57 1018.51 1018.49 1018.69 1018.80 1018.74 1018.61 1018.53 1018.62 1018.61 1018.67 1018.78 1018.63
1010.70 1010.84 1011.15 1011.24 1011.27 1011.17 1011.03 1010.92 1010.80 1010.73 1010.83 1010.91 1011.61 1012.83 1013.34 1013.76 1014.10 1014.53 1014.96 1015.32 1015.70 1016.04 1016.30 1016.34 1016.27 1016.58 1016.94 1017.25 1017.39 1017.76 1017.82 1018.07 1018.55 1018.84 1018.65 1018.50 1018.48 1018.47 1018.40 1018.60 1018.75 1018.84 1018.79 1018.67 1018.64 1018.76 1018.61 1018.68 1018.61
1010.74 1011.12 1011.35 1011.36 1011.44 1011.30 1011.10 1011.02 1010.64 1010.53 1010.68 1010.79 1011.42 1012.32 1012.98 1013.52 1013.81 1014.17 1014.77 1015.27 1015.72 1016.07 1016.22 1016.39 1016.36 1016.73 1017.02 1017.12 1017.29 1017.52 1017.70 1018.03 1018.24 1018.63 1018.46 1018.42 1018.24 1018.35 1018.34 1018.24 1018.37 1018.77 1018.68 1018.87 1018.93 1019.03 1018.93 1018.71 1018.75
1010.74 1011.18 1011.35 1011.51 1011.56 1011.50 1011.37 1010.99 1010.81 1010.43 1010.54 1011.04 1011.65 1012.42 1012.82 1013.26 1013.68 1014.29 1014.76 1015.23 1015.60 1015.92 1016.20 1016.43 1016.59 1016.77 1017.05 1017.21 1017.33 1017.57 1017.67 1018.29 1018.26 1018.27 1018.34 1018.28 1018.20 1018.14 1018.21 1018.34 1018.43 1018.56 1018.71 1018.66 1019.29 1019.20 1019.40 1019.05 1018.87
1011.12 1011.23 1011.43 1011.50 1011.53 1011.43 1011.39 1011.01 1010.83 1010.26 1010.49 1011.04 1011.60 1012.09 1012.53 1012.98 1013.47 1014.14 1014.70 1015.05 1015.39 1015.66 1015.93 1016.27 1016.63 1016.78 1017.00 1017.18 1017.55 1017.79 1017.92 1018.26 1018.40 1018.28 1018.26 1018.31 1018.12 1018.05 1018.05 1018.26 1018.39 1018.57 1018.77 1018.67 1018.78 1019.08 1019.39 1019.50 1019.05
1011.14 1011.16 1011.29 1011.23 1011.34 1011.21 1011.12 1010.95 1010.64 1010.45 1010.46 1010.89 1011.29 1011.77 1012.21 1012.76 1013.26 1013.63 1014.18 1014.48 1014.90 1015.26 1015.72 1016.10 1016.46 1016.69 1016.97 1017.23 1017.36 1017.55 1018.13 1017.94 1018.01 1018.06 1018.10 1018.01 1018.04 1018.00 1018.02 1018.03 1018.20 1018.11 1018.27 1018.57 1018.60 1018.95 1019.07 1019.22 1018.93
1010.93 1011.12 1010.83 1010.81 1011.05 1011.10 1010.94 1010.47 1010.52 1010.58 1010.62 1010.85 1011.16 1011.46 1011.85 1012.16 1012.62 1013.12 1013.78 1014.08 1014.60 1014.96 1015.56 1015.98 1016.22 1016.58 1016.89 1017.08 1017.34 1017.43 1017.58 1017.67 1017.72 1017.82 1017.82 1017.80 1017.79 1017.84 1017.88 1017.85 1017.94 1017.91 1018.04 1018.18 1018.12 1018.46 1018.69 1018.82 1018.90
1010.85 1010.60 1010.51 1010.48 1010.67 1010.72 1010.68 1010.20 1010.22 1010.41 1010.55 1010.61 1010.78 1010.88 1011.18 1011.65 1012.20 1012.61 1013.20 1013.85 1014.28 1014.78 1015.37 1015.77 1016.15 1016.44 1016.74 1016.94 1017.22 1017.41 1017.46 1017.50 1017.43 1017.56 1017.61 1017.59 1017.51 1017.57 1017.62 1017.65 1017.81 1017.95 1017.87 1017.94 1017.92 1018.15 1018.32 1018.23 1018.24
1010.17 1010.17 1010.15 1010.10 1010.22 1010.51 1010.41 1009.87 1009.89 1010.12 1010.21 1010.12 1010.36 1010.51 1010.66 1010.93 1011.28 1012.12 1012.72 1013.37 1013.97 1014.53 1015.05 1015.48 1015.92 1016.39 1016.76 1016.94 1017.19 1017.27 1017.28 1017.31 1017.26 1017.32 1017.37 1017.41 1017.23 1017.42 1017.50 1017.47 1017.67 1017.78 1017.64 1017.80 1017.90 1018.00 1018.29 1018.29 1018.19
1009.91 1009.94 1009.75 1009.67 1009.81 1010.12 1009.91 1009.56 1009.26 1009.46 1009.75 1009.67 1009.75 1010.00 1010.17 1010.20 1010.97 1011.60 1012.32 1013.04 1013.64 1014.26 1014.78 1015.17 1015.61 1016.16 1016.66 1016.90 1016.92 1017.00 1016.93 1017.21 1017.08 1016.90 1017.06 1017.18 1017.22 1017.18 1017.30 1017.35 1017.53 1017.64 1017.70 1017.73 1017.87 1017.94 1018.03 1018.05 1018.20
1009.56 1009.39 1009.20 1009.38 1009.81 1010.10 1009.71 1009.05 1008.62 1008.59 1008.61 1008.71 1008.90 1009.32 1009.61 1009.79 1010.68 1011.37 1011.82 1012.48 1013.11 1013.70 1014.33 1014.80 1015.20 1015.79 1016.36 1016.59 1016.82 1016.94 1016.96 1016.82 1016.64 1016.64 1016.79 1016.87 1017.00 1017.14 1017.23 1017.43 1017.51 1017.52 1017.60 1017.77 1017.84 1017.95 1017.96 1017.98 1018.15
1008.88 1008.86 1008.90 1009.30 1009.71 1010.00 1009.70 1008.14 1007.69 1007.43 1007.63 1007.97 1008.24 1008.53 1008.87 1009.36 1009.99 1010.51 1011.22 1011.89 1012.55 1013.26 1013.80 1014.31 1014.88 1015.43 1015.91 1016.29 1016.68 1016.97 1017.05 1017.01 1016.70 1016.57 1016.64 1016.56 1016.95 1017.09 1017.21 1017.25 1017.26 1017.41 1017.63 1017.52 1017.74 1017.82 1018.04 1017.73 1018.12
1007.93 1008.31 1008.57 1009.05 1009.36 1009.46 1009.63 1008.18 1006.98 1006.92 1006.90 1007.15 1007.38 1007.89 1008.14 1008.74 1009.40 1009.89 1010.61 1011.30 1011.98 1012.66 1013.34 1013.95 1014.57 1015.08 1015.57 1016.15 1016.35 1016.58 1016.52 1016.64 1016.67 1016.66 1016.59 1016.67 1016.83 1016.93 1016.98 1016.98 1017.00 1017.17 1017.32 1017.58 1017.60 1017.69 1017.96 1017.95 1017.53
1007.92 1008.10 1008.35 1008.79 1009.07 1009.38 1009.29 1008.90 1006.64 1006.67 1005.99 1006.02 1006.53 1006.98 1007.48 1007.94 1008.65 1009.41 1009.87 1010.49 1011.49 1012.32 1012.79 1013.52 1014.30 1014.74 1015.18 1015.74 1016.08 1016.27 1016.48 1016.44 1016.68 1016.86 1016.76 1016.85 1016.82 1016.82 1016.74 1016.76 1016.86 1017.00 1016.98 1017.41 1017.54 1017.66 1017.76 1017.69 1017.51
1007.83 1008.10 1008.48 1008.91 1008.93 1008.63 1008.69 1008.56 1006.16 1005.85 1005.62 1005.48 1005.88 1006.40 1006.97 1007.47 1008.20 1008.88 1009.68 1010.28 1011.08 1011.95 1012.43 1012.95 1013.83 1014.34 1014.88 1015.43 1015.79 1016.16 1016.35 1016.44 1016.47 1016.57 1016.64 1016.60 1016.59 1016.58 1016.62 1016.51 1016.74 1016.71 1016.66 1017.10 1017.19 1017.45 1017.61 1017.62 1017.50
1007.58 1007.41 1007.64 1007.91 1008.09 1007.84 1008.37 1008.26 1005.66 1005.44 1005.32 1005.21 1005.43 1005.99 1006.56 1007.22 1007.94 1008.52 1009.21 1009.89 1010.64 1011.34 1012.04 1012.63 1013.30 1013.84 1014.42 1014.91 1015.31 1015.70 1016.12 1016.38 1016.40 1016.41 1016.29 1016.33 1016.26 1016.33 1016.31 1016.38 1016.46 1016.76 1016.68 1016.89 1016.97 1017.33 1017.42 1017.31 1017.16
1006.92 1006.84 1006.73 1006.90 1007.23 1007.31 1007.85 1006.70 1005.04 1005.22 1005.29 1005.18 1005.19 1005.60 1006.34 1007.04 1007.59 1008.13 1008.68 1009.39 1010.14 1010.92 1011.68 1012.25 1012.82 1013.24 1013.79 1014.43 1014.94 1015.35 1015.70 1015.96 1016.12 1016.24 1016.10 1016.06 1016.06 1016.07 1016.17 1016.18 1016.07 1016.12 1016.39 1016.63 1016.87 1017.03 1016.99 1016.92 1016.73
1006.86 1006.76 1006.47 1006.54 1007.52 1006.99 1006.40 1005.47 1004.86 1005.01 1005.04 1005.04 1005.15 1005.52 1005.94 1006.48 1007.20 1007.75 1008.35 1009.03 1009.65 1010.38 1011.07 1011.69 1012.33 1012.79 1013.23 1013.64 1014.31 1014.82 1015.22 1015.48 1015.61 1015.91 1015.99 1015.78 1015.94 1016.00 1016.05 1015.98 1016.14 1015.91 1016.09 1016.21 1016.63 1016.62 1016.77 1016.71 1016.64
1005.51 1005.79 1006.19 1006.22 1006.00 1005.71 1005.55 1005.15 1004.39 1004.37 1004.72 1004.96 1005.05 1005.24 1005.70 1006.23 1006.88 1007.41 1007.89 1008.45 1009.08 1009.80 1010.64 1011.30 1011.86 1012.17 1012.55 1013.25 1013.78 1014.09 1014.48 1014.88 1015.18 1015.47 1015.58 1015.65 1015.67 1015.78 1015.92 1015.88 1015.93 1015.90 1016.01 1016.12 1016.24 1016.29 1016.38 1016.35 1016.46
1005.40 1005.27 1005.64 1005.60 1005.72 1005.07 1004.84 1004.20 1003.94 1003.92 1004.18 1004.55 1004.83 1005.00 1005.28 1005.84 1006.24 1006.88 1007.50 1008.16 1008.70 1009.57 1010.20 1010.77 1011.45 1011.75 1012.12 1012.59 1012.98 1013.45 1013.72 1014.11 1014.51 1014.77 1014.93 1015.09 1015.26 1015.42 1015.55 1015.63 1015.65 1015.66 1015.75 1015.79 1015.90 1015.72 1016.12 1016.10 1016.08
1004.12 1003.96 1004.44 1004.50 1005.24 1005.49 1004.91 1003.92 1003.60 1003.66 1003.75 1004.21 1004.28 1004.63 1005.00 1005.30 1005.77 1006.28 1006.92 1007.72 1008.33 1008.96 1009.76 1010.35 1010.80 1011.04 1011.36 1011.84 1012.48 1012.77 1013.25 1013.62 1013.84 1014.01 1014.16 1014.47 1014.68 1014.89 1015.03 1015.19 1015.23 1015.23 1015.30 1015.50 1015.63 1015.58 1015.52 1015.71 1015.76
Thickness
5797 5795 5795 5787 5767 5769 5752 5754 5771 5766 5770 5776 5782 5768 5761 5761 5757 5747 5769 5770 5769 5768 5766 5765 5765 5763 5764 5764 5761 5759 5759 5760 5762 5761 5761 5759 5758 5756 5756 5755 5753 5752 5750 5750 5748 5746 5744 5743 5740
5798 5796 5790 5777 5760 5751 5744 5763 5758 5768 5774 5779 5777 5768 5761 5753 5762 5759 5763 5769 5769 5768 5765 5764 5763 5764 5762 5762 5760 5758 5757 5758 5759 5759 5760 5758 5756 5756 5755 5753 5751 5749 5747 5744 5743 5742 5741 5740 5737
5798 5796 5778 5766 5752 5746 5742 5761 5762 5771 5779 5776 5769 5772 5764 5754 5757 5762 5770 5768 5766 5765 5764 5762 5761 5762 5761 5760 5759 5757 5756 5757 5757 5758 5757 5756 5755 5754 5753 5751 5750 5748 5744 5741 5740 5740 5739 5738 5736
5793 5785 5777 5761 5747 5750 5756 5760 5762 5766 5775 5779 5772 5757 5764 5765 5760 5766 5768 5767 5764 5761 5760 5761 5761 5761 5759 5759 5758 5756 5756 5756 5754 5755 5755 5755 5754 5752 5751 5749 5748 5746 5744 5741 5739 5737 5736 5734 5735
5792 5782 5765 5756 5754 5759 5765 5769 5770 5767 5769 5771 5772 5754 5752 5759 5764 5766 5765 5764 5762 5762 5760 5759 5758 5757 5757 5758 5757 5755 5756 5755 5754 5755 5754 5754 5753 5751 5749 5749 5748 5746 5744 5741 5739 5737 5735 5735 5733
5779 5777 5758 5752 5755 5761 5765 5773 5771 5770 5770 5768 5765 5759 5754 5758 5759 5762 5763 5761 5760 5760 5760 5758 5757 5755 5756 5757 5755 5755 5755 5754 5754 5753 5752 5751 5750 5750 5748 5748 5747 5746 5744 5741 5740 5738 5736 5735 5732
5773 5767 5754 5755 5758 5756 5763 5775 5769 5769 5769 5765 5771 5754 5754 5753 5757 5759 5758 5758 5758 5757 5759 5758 5757 5755 5755 5754 5754 5754 5754 5752 5752 5751 5750 5749 5748 5749 5747 5747 5747 5745 5743 5742 5742 5740 5737 5736 5732
5778 5768 5755 5755 5751 5754 5767 5771 5775 5770 5765 5776 5776 5756 5752 5756 5757 5757 5756 5756 5755 5754 5756 5757 5756 5757 5756 5756 5754 5753 5752 5750 5749 5749 5749 5747 5748 5747 5747 5746 5747 5745 5743 5740 5739 5739 5738 5736 5736
5784 5759 5750 5755 5753 5761 5770 5768 5777 5780 5770 5769 5769 5767 5769 5762 5757 5754 5751 5752 5750 5751 5754 5756 5757 5758 5757 5754 5753 5751 5751 5749 5749 5746 5745 5746 5748 5747 5747 5747 5746 5746 5745 5744 5742 5741 5739 5736 5734
5771 5755 5757 5766 5767 5764 5769 5770 5768 5766 5765 5760 5759 5763 5765 5761 5756 5753 5751 5750 5749 5750 5752 5755 5756 5756 5755 5752 5752 5752 5751 5748 5746 5743 5744 5745 5746 5747 5747 5746 5746 5746 5747 5747 5745 5743 5741 5738 5738
5771 5759 5766 5767 5769 5770 5768 5768 5775 5767 5759 5768 5760 5755 5760 5759 5757 5755 5754 5752 5751 5751 5751 5753 5755 5755 5753 5752 5752 5750 5750 5748 5745 5744 5744 5745 5746 5747 5748 5747 5747 5746 5746 5745 5745 5743 5742 5741 5739
5761 5768 5767 5765 5768 5766 5763 5768 5766 5772 5769 5777 5771 5767 5764 5759 5758 5758 5755 5753 5751 5751 5752 5753 5754 5753 5751 5752 5752 5751 5749 5748 5746 5744 5745 5746 5748 5749 5750 5751 5750 5747 5748 5744 5743 5743 5741 5741 5739
5763 5763 5766 5766 5765 5765 5765 5764 5765 5769 5777 5776 5771 5766 5763 5761 5760 5758 5757 5755 5752 5751 5751 5752 5752 5751 5751 5750 5750 5749 5749 5746 5747 5747 5746 5747 5750 5751 5751 5752 5752 5750 5748 5747 5743 5741 5737 5738 5738
5763 5764 5762 5763 5762 5763 5757 5762 5766 5774 5780 5773 5769 5766 5765 5763 5761 5757 5754 5752 5752 5753 5753 5754 5752 5750 5750 5750 5748 5747 5746 5745 5747 5748 5747 5749 5751 5753 5753 5753 5752 5751 5749 5748 5746 5742 5738 5737 5738
5761 5754 5758 5761 5760 5759 5764 5753 5754 5772 5777 5770 5769 5768 5766 5764 5763 5761 5759 5756 5756 5755 5756 5753 5753 5751 5751 5749 5748 5746 5745 5748 5750 5750 5751 5752 5753 5753 5754 5754 5754 5755 5754 5750 5749 5745 5743 5740 5740
5750 5751 5742 5759 5759 5760 5762 5747 5760 5770 5769 5766 5768 5768 5766 5766 5766 5766 5763 5761 5759 5757 5754 5754 5755 5753 5752 5750 5749 5748 5748 5750 5753 5752 5754 5755 5756 5756 5755 5755 5755 5756 5756 5753 5753 5751 5748 5745 5744
5743 5737 5742 5750 5762 5758 5758 5749 5764 5770 5765 5765 5768 5771 5770 5768 5766 5767 5767 5763 5760 5759 5755 5755 5755 5755 5753 5752 5751 5750 5751 5753 5754 5754 5755 5757 5759 5759 5758 5757 5756 5755 5757 5756 5755 5753 5751 5750 5750
5736 5740 5745 5743 5756 5755 5751 5756 5763 5767 5765 5766 5769 5772 5771 5770 5770 5769 5767 5766 5762 5760 5758 5757 5757 5755 5753 5752 5752 5753 5753 5754 5756 5757 5757 5759 5761 5760 5759 5759 5756 5755 5759 5758 5756 5754 5753 5753 5752
5748 5742 5743 5754 5763 5754 5754 5758 5766 5770 5764 5766 5769 5771 5772 5774 5775 5774 5769 5766 5763 5759 5757 5757 5757 5755 5753 5752 5753 5754 5755 5755 5758 5760 5760 5760 5761 5761 5761 5760 5758 5757 5759 5759 5757 5756 5755 5754 5754
5746 5744 5748 5757 5759 5753 5754 5757 5771 5775 5773 5774 5774 5773 5773 5776 5771 5770 5769 5767 5764 5761 5758 5758 5759 5757 5754 5755 5755 5756 5757 5760 5761 5762 5762 5762 5762 5761 5761 5759 5759 5758 5759 5758 5758 5757 5756 5755 5754
5750 5745 5748 5746 5751 5753 5750 5760 5769 5783 5785 5783 5782 5781 5781 5777 5773 5774 5770 5768 5766 5761 5760 5760 5760 5759 5757 5756 5755 5754 5754 5756 5760 5762 5763 5764 5762 5761 5760 5760 5759 5759 5758 5759 5759 5759 5756 5756 5754
5747 5761 5758 5750 5746 5737 5751 5739 5772 5776 5779 5780 5785 5783 5784 5780 5780 5779 5775 5770 5768 5765 5763 5762 5760 5759 5757 5754 5753 5752 5754 5753 5756 5759 5762 5762 5761 5761 5762 5761 5761 5761 5759 5758 5759 5761 5758 5756 5756
5755 5765 5759 5754 5748 5742 5742 5736 5775 5771 5782 5786 5786 5789 5789 5789 5786 5780 5781 5778 5772 5768 5766 5764 5761 5759 5758 5754 5752 5752 5751 5755 5757 5756 5758 5759 5761 5761 5762 5762 5763 5763 5762 5760 5759 5759 5759 5760 5760
5769 5758 5753 5748 5745 5733 5740 5738 5768 5775 5783 5791 5792 5793 5794 5793 5790 5786 5783 5781 5774 5771 5769 5767 5762 5759 5759 5756 5753 5751 5750 5752 5754 5757 5757 5760 5762 5763 5762 5763 5763 5763 5765 5761 5760 5760 5761 5761 5762
5761 5756 5731 5730 5733 5736 5744 5731 5771 5787 5794 5794 5794 5794 5796 5796 5791 5786 5782 5779 5777 5774 5771 5769 5765 5760 5760 5757 5755 5754 5752 5752 5753 5754 5758 5758 5760 5762 5764 5764 5763 5762 5763 5762 5761 5761 5763 5764 5764
5756 5759 5741 5715 5726 5742 5742 5743 5777 5791 5797 5799 5801 5801 5799 5792 5793 5790 5787 5783 5780 5776 5773 5771 5767 5765 5763 5760 5757 5757 5755 5754 5756 5756 5759 5760 5762 5764 5764 5764 5765 5764 5763 5762 5760 5762 5764 5766 5768
5746 5746 5767 5744 5730 5738 5750 5770 5788 5790 5793 5798 5799 5797 5797 5798 5793 5792 5790 5787 5784 5778 5776 5775 5770 5767 5765 5764 5761 5758 5757 5756 5757 5757 5758 5762 5762 5763 5763 5763 5763 5765 5764 5764 5761 5763 5763 5766 5767
5770 5772 5747 5745 5725 5726 5748 5750 5769 5786 5787 5792 5795 5798 5798 5798 5795 5792 5792 5790 5787 5784 5780 5777 5774 5772 5770 5766 5763 5763 5761 5760 5760 5759 5759 5762 5763 5763 5762 5763 5763 5765 5765 5764 5764 5765 5765 5766 5766
5758 5758 5751 5758 5747 5741 5736 5758 5792 5792 5796 5793 5798 5801 5802 5799 5799 5797 5794 5792 5791 5786 5782 5778 5774 5773 5770 5769 5768 5765 5765 5764 5763 5762 5762 5763 5764 5764 5763 5763 5763 5764 5764 5764 5764 5767 5765 5765 5766
5779 5777 5771 5753 5737 5738 5747 5762 5796 5800 5803 5802 5805 5805 5806 5806 5804 5803 5800 5795 5792 5788 5783 5779 5776 5775 5775 5772 5768 5767 5765 5764 5763 5763 5764 5764 5764 5765 5765 5765 5765 5766 5766 5764 5763 5765 5767 5765 5765